Showing default

FORMOSAT7-4/COSMIC2-4, 44350

Orbit data source: Space-Track

FORMOSAT7-4/COSMIC2-4, 44350 is a payload satellite owned by NSPO (TW) in LEO that was launched on Tue, 25 Jun 2019 UTC via an FALCON HEAVY launch vehicle from the Air Force Eastern Test Range (AFETR). Payloads include a variety of satellites, spacecraft, and rockets equipped with specific instruments for various scientific and technological missions. These include communications satellites like Starlink; space stations such as the ISS; scientific satellites like the Hubble; Earth observation satellites from companies like Planet Labs, Umbra, and HawkEye 360; GPS; miniature CubeSats for education and research; and military/defense satellites.

Not visible in the next 10 days
FORMOSAT7-4/COSMIC2-4 details
Identifier
44350, 2019-036M
Orbit
LEO
Last TLE update1 day ago
Origin
Flag of TWNSPO (TW / TWN)
ManufacturerSSTL (Astrium)
MissionOperational Civil Weather
Bus & MotorSSTL-100, Unknown motor
Mass278 kg wet, 278 kg dry
Launch date (UTC)
2019-06-25 (6 years ago)
Launch vehicle
FALCON HEAVY
Launch site
Air Force Eastern Test Range (AFETR)
Object type
Payload
Rocket body
Debris
Shape & HBRBox + 1 Pan, 3 m
Radar Cross Section2.189 m², Large (>1 m²)

Expand to show TLE details & history

TLE from 1 day ago
0 FORMOSAT7-4/COSMIC2-4
1 44350U 19036M   24360.66816659  .00012616  00000-0  78420-3 0  9997
2 44350  23.9973 152.7306 0001430 161.8543 198.2011 15.07633368303045
Epoch: 2024-12-25T16:02Z
Definitive object data (Epoch: 2024-12-25T16:02:09.593Z)
Latitude-0.00002°
Longitude177.53196°
Altitude542.253 km
Speed7.593 km/s
True Right ascension10h 10m 55s
True Declination0° 00' 00"
Sunlit
Object was in full shadow at TLE epoch
Visualization TLE readout
Latitude-4.71979°
Longitude160.11242°
Altitude542.952 km
Speed7.593 km/s
Apparent Right ascension06h 42m 55s
Apparent Declination-28° 15' 58"
Sunlit
Object is in full shadow
Visualization observer readout
Local Sidereal Time15:10:42
Azimuth268.087° W
Elevation-45.229°
Doppler factor1
Orbital elements
Apogee altitude549.216 km
Perigee altitude547.235 km
Semi-major axis6,926.362 km
Eccentricity0.000143
Inclination23.9973°
RAAN152.7306°
Arg. of periapsis161.8543°
True anomaly198.19598°
Mean anomaly198.2011°
Eccentric anomaly198.19854°
Mean motion3.76518 °/min
BSTAR0.0007842
Orbital period95.61 mins
Loading maneuver chart data...
Loading historical data...
Loading historical data...
Loading historical data...
Loading historical data...
Loading historical data...
Loading historical data...
Loading historical data...

FORMOSAT7-4/COSMIC2-4 Visibility forecast

Observer location: undefined°, undefined

FORMOSAT7-4/COSMIC2-4 is not visible in the next 10 days
Span
Click to sort rows by Start time (UTC) header in descending order
Start Az.
Max El. time (UTC)
Max El. Az.
Max El.
End time (UTC)
End Az.
|